1529416800.34,51498,20.88,74658.0,15.09,6.87,6.93,0,*44
1529416801.55,51499,20.88,74658.3,15.09,7.09,7.19,0,*41
1529416802.77,51500,20.88,74656.5,15.07,6.83,6.73,0,*40
1529416803.98,51501,20.88,74660.8,15.05,6.87,6.97,0,*4D
1529416805.18,51502,20.88,74658.8,15.05,6.75,6.69,0,*42
1529416806.39,51503,20.88,74658.0,15.01,6.87,6.93,0,*4F
1529416807.6,51504,20.88,74656.0,15.01,6.87,6.93,0,*48
1529416808.8,51505,20.88,74662.3,15.03,6.79,6.79,0,*4E
1529416810.02,51506,20.88,74658.0,14.99,7.29,7.29,0,*4F
1529416811.28,51507,20.88,74656.0,14.95,7.15,7.15,0,*42
1529416812.48,51508,20.88,74656.5,14.95,6.93,6.93,0,*4D
1529416813.68,51509,20.88,74656.5,14.99,7.37,7.33,0,*44
1529416814.89,51510,20.88,74658.3,14.95,7.51,7.59,0,*4C
1529416816.13,51511,20.88,74658.5,14.99,7.55,7.61,0,*4E
1529416817.36,51512,20.88,74656.5,14.95,7.05,7.15,0,*47
1529416818.62,51513,20.88,74658.8,14.95,7.23,7.23,0,*47
1529416819.88,51514,20.88,74658.0,14.95,7.47,7.47,0,*40
1529416821.11,51515,20.88,74658.8,14.93,7.23,7.23,0,*47
1529416822.32,51516,20.88,74658.3,14.93,7.29,7.23,0,*4E
1529416823.53,51517,20.88,74656.5,14.93,7.23,7.29,0,*4F
1529416824.79,51518,20.88,74658.0,14.91,7.19,7.19,0,*48
1529416826.02,51519,20.88,74658.0,14.91,7.11,7.09,0,*40
1529416827.25,51520,20.88,74658.5,14.91,7.09,7.11,0,*4A
1529416828.5,51521,20.88,74660.3,14.91,6.87,6.87,0,*42
1529416829.71,51522,20.88,74658.3,14.89,7.15,7.09,0,*45
1529416830.91,51523,20.88,74654.3,14.87,7.01,7.01,0,*47
1529416832.09,51524,20.88,74660.0,14.89,7.37,7.37,0,*4E
1529416833.31,51525,20.88,74656.3,14.87,7.29,7.29,0,*41
1529416834.54,51526,20.88,74658.8,14.87,7.29,7.27,0,*4C
1529416835.77,51527,20.88,74658.0,14.87,7.37,7.23,0,*46
1529416836.95,51528,20.88,74660.0,14.85,7.45,7.37,0,*4B
1529416838.13,51529,20.88,74658.3,14.85,7.37,7.37,0,*4F
1529416839.34,51530,20.88,74658.0,14.85,7.47,7.37,0,*40
1529416840.57,51531,20.88,74658.8,14.85,7.77,7.65,0,*45
1529416841.77,51532,20.88,74658.8,14.83,7.55,7.45,0,*42
1529416842.98,51533,20.88,74656.8,14.85,7.79,7.77,0,*4A
1529416844.19,51534,20.88,74658.3,14.85,7.69,7.59,0,*40
1529416845.41,51535,20.88,74656.5,14.83,7.47,7.45,0,*46
1529416846.62,51536,20.88,74656.0,14.83,7.55,7.37,0,*43
1529416847.83,51537,20.88,74662.0,14.81,7.33,7.19,0,*4C
1529416849.08,51538,20.88,74658.8,14.79,7.23,7.23,0,*4C
1529416850.33,51539,20.88,74658.8,14.79,7.19,7.15,0,*41
1529416851.54,51540,20.88,74656.8,14.79,7.55,7.45,0,*42
1529416852.77,51541,20.88,74656.0,14.79,7.73,7.55,0,*46
1529416854.03,51542,20.88,74658.8,14.79,7.23,7.15,0,*44
1529416855.28,51543,20.88,74658.0,14.79,7.19,7.19,0,*40
1529416856.47,51544,20.88,74652.3,14.77,7.29,7.29,0,*49
1529416857.68,51545,20.88,74658.3,14.77,7.47,7.37,0,*4F
1529416858.89,51546,20.88,74658.0,14.77,7.61,7.59,0,*40
1529416860.09,51547,20.88,74656.0,14.79,7.51,7.33,0,*40
1529416861.32,51548,20.88,74656.8,14.79,7.61,7.55,0,*4C
1529416862.56,51549,20.88,74656.0,14.77,7.27,7.27,0,*44
1529416863.76,51550,20.88,74656.5,14.77,7.37,7.27,0,*4D
1529416865.01,51551,20.88,74658.3,14.75,7.11,7.11,0,*4F
1529416866.27,51552,20.88,74656.8,14.75,7.15,7.11,0,*48
1529416867.52,51553,20.88,74656.0,14.75,7.15,7.23,0,*48
1529416868.72,51554,20.88,74658.3,14.71,7.33,7.41,0,*4B
1529416869.92,51555,20.88,74658.8,14.71,7.45,7.45,0,*4F
1529416871.15,51556,20.88,74658.8,14.71,6.87,6.93,0,*49
1529416872.34,51557,20.88,74656.5,14.69,6.97,7.05,0,*4E
1529416873.57,51558,20.88,74652.5,14.69,7.23,7.23,0,*4B
1529416874.75,51559,20.88,74658.5,14.69,7.41,7.33,0,*4F
1529416875.93,51560,20.88,74658.3,14.69,7.45,7.41,0,*44
1529416877.19,51561,20.88,74658.0,14.67,7.61,7.61,0,*4F
1529416878.37,51562,20.88,74656.0,14.65,7.51,7.51,0,*4E
1529416879.59,51563,20.88,74658.3,14.67,7.51,7.47,0,*4A
1529416880.79,51564,20.88,74658.3,14.67,7.05,7.01,0,*4E
1529416882.02,51565,20.88,74658.0,14.65,7.27,7.27,0,*49
1529416883.23,51566,20.88,74658.3,14.65,7.47,7.51,0,*4D
1529416884.4,51567,20.88,74658.8,14.65,7.05,7.01,0,*4F
1529416885.61,51568,20.88,74656.0,14.65,6.93,6.91,0,*46
1529416886.81,51569,20.88,74658.0,14.63,7.05,7.01,0,*47
1529416888.07,51570,20.88,74658.8,14.63,7.27,7.23,0,*4F
1529416889.25,51571,20.88,74658.5,14.61,7.33,7.29,0,*43
1529416890.48,51572,20.88,74658.3,14.63,7.47,7.55,0,*4A
1529416891.74,51573,20.88,74652.3,14.63,7.73,7.69,0,*43
1529416892.91,51574,20.88,74656.8,14.61,7.01,7.01,0,*4D
1529416894.11,51575,20.88,74656.0,14.59,7.01,7.01,0,*47
1529416895.31,51576,20.88,74656.3,14.59,6.83,6.83,0,*44
1529416896.5,51577,20.88,74656.5,14.57,6.93,6.93,0,*4B
1529416897.67,51578,20.88,74656.0,14.57,6.83,6.83,0,*44
1529416898.91,51579,20.88,74658.8,14.57,6.51,6.69,0,*4E
1529416900.11,51580,20.88,74660.8,14.57,6.73,6.79,0,*49
1529416901.31,51581,20.88,74656.5,14.55,7.01,7.01,0,*40
1529416902.52,51582,20.88,74654.0,14.53,7.05,7.11,0,*40
1529416903.73,51583,20.88,74654.3,14.53,6.87,6.79,0,*45
1529416904.97,51584,20.88,74656.3,14.53,6.87,6.91,0,*44
1529416906.2,51585,20.88,74656.0,14.53,6.91,6.87,0,*45
1529416907.42,51586,20.88,74656.0,14.47,6.57,6.57,0,*44
1529416908.68,51587,20.88,74658.0,14.49,6.51,6.43,0,*48
1529416909.94,51588,20.88,74658.0,14.45,6.73,6.73,0,*48
1529416911.2,51589,20.88,74662.0,14.45,6.51,6.39,0,*47
1529416912.45,51590,20.88,74658.5,14.45,6.17,6.13,0,*45
1529416913.65,51591,20.88,74656.3,14.43,5.95,5.89,0,*4B
1529416914.88,51592,20.88,74658.8,14.41,5.95,5.93,0,*41
1529416916.09,51593,20.88,74658.0,14.39,5.95,5.93,0,*4F
1529416917.29,51594,20.88,74656.5,14.39,6.07,5.93,0,*40
1529416918.48,51595,20.88,74658.3,14.35,6.21,6.25,0,*47
1529416919.67,51596,20.88,74656.5,14.35,6.25,6.21,0,*44
1529416920.92,51597,20.88,74658.8,14.33,6.57,6.65,0,*46
1529416922.13,51598,20.88,74656.0,14.33,7.33,7.29,0,*43
1529416923.36,51599,20.88,74656.0,14.31,7.19,7.23,0,*42
1529416924.62,51600,20.88,74654.5,14.33,7.15,7.11,0,*4E
1529416925.8,51601,20.88,74656.3,14.31,6.79,6.79,0,*49
1529416927.03,51602,20.88,74656.0,14.31,6.65,6.65,0,*4A
1529416928.27,51603,20.88,74656.0,14.31,6.43,6.43,0,*4B
1529416929.51,51604,20.88,74658.3,14.33,6.13,6.21,0,*4F
1529416930.72,51605,20.88,74656.8,14.27,6.17,6.25,0,*4B
1529416931.98,51606,20.88,74656.8,14.25,6.51,6.61,0,*48
1529416933.23,51607,20.88,74656.0,14.25,7.15,7.15,0,*4A
1529416934.44,51608,20.88,74658.8,14.25,7.33,7.41,0,*40
1529416935.64,51609,20.88,74652.5,14.25,7.41,7.41,0,*44
1529416936.85,51610,20.88,74658.8,14.25,7.55,7.51,0,*48
1529416938.09,51611,20.88,74658.0,14.25,7.09,7.15,0,*40
1529416939.26,51612,20.88,74654.5,14.27,7.41,7.33,0,*49
1529416940.45,51613,20.88,74656.0,14.27,6.93,6.97,0,*49
1529416941.68,51614,20.88,74656.5,14.25,7.09,7.19,0,*49
1529416942.9,51615,20.88,74656.3,14.25,6.97,6.97,0,*49
1529416944.13,51616,20.88,74656.0,14.25,6.87,6.97,0,*4B
1529416945.37,51617,20.88,74656.5,14.21,7.09,7.11,0,*46
1529416946.55,51618,20.88,74654.8,14.23,7.29,7.41,0,*4C
1529416947.79,51619,20.88,74656.5,14.21,7.09,7.11,0,*48
1529416949.0,51620,20.88,74654.3,14.23,6.91,6.93,0,*4B
1529416950.19,51621,20.88,74658.8,14.21,7.01,7.01,0,*4A
1529416951.45,51622,20.88,74658.8,14.21,7.19,7.19,0,*49
1529416952.67,51623,20.88,74658.8,14.19,7.01,7.11,0,*42
1529416953.87,51624,20.88,74656.5,14.19,7.09,7.01,0,*4C
1529416955.07,51625,20.88,74656.3,14.19,7.33,7.37,0,*41
1529416956.32,51626,20.88,74656.3,14.19,6.87,6.91,0,*41
1529416957.55,51627,20.88,74658.0,14.17,6.57,6.53,0,*4D
1529416958.79,51628,20.88,74654.8,14.17,6.51,6.51,0,*46
1529416960.04,51629,20.88,74658.3,14.15,6.51,6.61,0,*46
1529416961.27,51630,20.88,74658.3,14.13,6.73,6.73,0,*4B
1529416962.49,51631,20.88,74654.0,14.13,6.73,6.69,0,*41
1529416963.72,51632,20.88,74658.0,14.13,7.19,7.11,0,*41
1529416964.94,51633,20.88,74656.3,14.13,6.69,6.61,0,*40
1529416966.14,51634,20.88,74658.3,14.13,7.01,6.91,0,*47
1529416967.36,51635,20.88,74658.5,14.13,7.15,7.15,0,*4E
1529416968.56,51636,20.88,74654.3,14.09,7.33,7.27,0,*43
1529416969.82,51637,20.88,74658.3,14.11,7.23,7.27,0,*4A
1529416971.05,51638,20.88,74658.0,14.09,7.27,7.27,0,*48
1529416972.24,51639,20.88,74656.3,14.11,7.45,7.45,0,*40
1529416973.5,51640,20.88,74658.0,14.11,7.23,7.11,0,*4F
1529416974.73,51641,20.88,74656.5,14.11,7.27,7.37,0,*4E
1529416975.9,51642,20.88,74656.3,14.09,7.45,7.45,0,*45
1529416977.13,51643,20.88,74654.0,14.11,7.47,7.55,0,*4E
1529416978.37,51644,20.88,74658.0,14.11,7.47,7.47,0,*4A
1529416979.55,51645,20.88,74654.8,14.09,7.09,7.01,0,*4A
1529416980.77,51646,20.88,74654.8,14.09,7.23,7.23,0,*41
1529416981.94,51647,20.88,74656.5,14.09,7.33,7.33,0,*40
1529416983.12,51648,20.88,74658.3,14.09,7.37,7.45,0,*4A
1529416984.29,51649,20.88,74654.8,14.09,7.37,7.45,0,*4B
1529416985.48,51650,20.88,74654.8,14.09,7.11,7.01,0,*47
1529416986.69,51651,20.88,74656.3,14.09,6.97,6.91,0,*41
1529416987.89,51652,20.88,74656.0,14.03,6.83,6.79,0,*4B
1529416989.13,51653,20.88,74654.0,14.03,6.69,6.61,0,*47
1529416990.39,51654,20.88,74656.5,14.03,7.27,7.15,0,*49
1529416991.58,51655,20.88,74658.0,14.05,7.29,7.29,0,*4F
1529416992.8,51656,20.88,74658.8,14.03,7.15,7.09,0,*47
1529416994.0,51657,20.88,74656.3,14.03,7.59,7.51,0,*43
1529416995.19,51658,20.88,74652.3,14.01,7.59,7.55,0,*4A
1529416996.37,51659,20.88,74654.3,14.01,7.55,7.55,0,*47
1529416997.6,51660,20.88,74656.0,14.01,7.27,7.23,0,*49
1529416998.78,51661,20.88,74652.5,14.01,7.45,7.45,0,*4C
1529416999.99,51662,20.88,74658.3,13.99,7.59,7.55,0,*45
1529417001.21,51663,20.88,74658.0,14.01,7.47,7.47,0,*4E
1529417002.42,51664,20.88,74656.3,14.01,7.47,7.37,0,*4E
1529417003.6,51665,20.88,74654.5,14.01,7.45,7.45,0,*48
1529417004.83,51666,20.88,74650.8,14.01,7.69,7.69,0,*4B
1529417006.08,51667,20.88,74652.5,13.99,7.69,7.65,0,*40
1529417007.28,51668,20.88,74654.5,14.01,7.65,7.59,0,*4A
1529417008.49,51669,20.88,74652.3,14.01,7.37,7.27,0,*45
1529417009.72,51670,20.88,74654.5,13.99,7.37,7.15,0,*4A
1529417010.92,51671,20.88,74656.8,13.99,7.59,7.55,0,*47
1529417012.16,51672,20.88,74652.8,13.99,7.69,7.55,0,*47
1529417013.36,51673,20.88,74652.3,14.01,7.59,7.47,0,*40
1529417014.59,51674,20.88,74654.8,13.99,7.79,7.65,0,*43
1529417015.83,51675,20.88,74654.5,14.01,7.91,7.73,0,*45
1529417017.06,51676,20.88,74652.3,14.01,7.95,7.83,0,*4D
1529417018.3,51677,20.88,74654.0,13.99,7.79,7.69,0,*4C
1529417019.53,51678,20.88,74656.5,14.01,7.27,7.15,0,*45
1529417020.74,51679,20.88,74658.5,14.01,7.47,7.37,0,*42
1529417021.97,51680,20.88,74652.0,13.99,7.23,7.05,0,*41
1529417023.2,51681,20.88,74658.5,14.01,7.11,6.91,0,*4B
1529417024.43,51682,20.88,74654.5,13.97,6.73,6.65,0,*4E
1529417025.66,51683,20.88,74656.8,13.97,6.43,6.39,0,*45
1529417026.84,51684,20.88,74656.0,13.97,7.09,7.01,0,*47
1529417028.05,51685,20.88,74652.8,13.95,7.33,7.29,0,*47
1529417029.26,51686,20.88,74658.0,13.95,7.33,7.29,0,*44
1529417030.46,51687,20.88,74654.3,13.95,7.41,7.41,0,*4E
1529417031.66,51688,20.88,74652.8,13.95,7.45,7.45,0,*41
1529417032.87,51689,20.88,74652.0,13.95,7.55,7.45,0,*41
1529417034.13,51690,20.88,74652.5,13.95,7.23,7.11,0,*49
1529417035.39,51691,20.88,74654.8,13.91,7.23,7.15,0,*48
1529417036.57,51692,20.88,74650.0,13.93,7.41,7.41,0,*4C
1529417037.81,51693,20.88,74654.0,13.93,7.77,7.73,0,*49
1529417039.02,51694,20.88,74652.5,13.91,7.59,7.59,0,*48
1529417040.21,51695,20.88,74650.5,13.93,7.37,7.29,0,*44
1529417041.43,51696,20.88,74654.8,13.91,7.33,7.23,0,*4B
1529417042.66,51697,20.88,74654.0,13.95,7.19,7.01,0,*46
1529417043.89,51698,20.88,74652.0,13.91,7.33,7.11,0,*44
1529417045.09,51699,20.88,74648.8,13.91,7.45,7.33,0,*44
1529417046.32,51700,20.88,74654.0,13.91,7.37,7.27,0,*45
1529417047.58,51701,20.88,74654.5,13.91,7.27,7.11,0,*40
1529417048.75,51702,20.88,74652.5,13.89,7.37,7.33,0,*4B
1529417049.94,51703,20.88,74654.3,13.89,7.59,7.45,0,*43
1529417051.12,51704,20.88,74656.0,13.89,7.37,7.37,0,*49
1529417052.31,51705,20.88,74654.8,13.89,7.55,7.59,0,*44
1529417053.54,51706,20.88,74652.5,13.89,7.61,7.47,0,*4F
1529417054.77,51707,20.88,74652.0,13.89,7.47,7.47,0,*4A
1529417055.96,51708,20.88,74654.5,13.89,7.45,7.29,0,*4F
1529417057.17,51709,20.88,74650.5,13.89,7.47,7.37,0,*43
1529417058.36,51710,20.88,74648.3,13.87,7.29,7.29,0,*42
1529417059.56,51711,20.88,74654.5,13.87,7.41,7.19,0,*4E
1529417060.74,51712,20.88,74648.8,13.87,7.51,7.41,0,*41
1529417061.94,51713,20.88,74652.3,13.87,7.69,7.59,0,*42
1529417063.17,51714,20.88,74652.3,13.85,7.51,7.47,0,*43
1529417064.36,51715,20.88,74654.8,13.87,7.55,7.51,0,*43
1529417065.54,51716,20.88,74654.8,13.87,7.59,7.55,0,*48
1529417066.75,51717,20.88,74658.0,13.87,7.79,7.69,0,*44
1529417067.95,51718,20.88,74654.5,13.87,7.69,7.55,0,*45
1529417069.15,51719,20.88,74652.5,13.87,7.65,7.59,0,*44
1529417070.39,51720,20.88,74652.5,13.85,7.61,7.51,0,*40
1529417071.59,51721,20.88,74652.3,13.87,7.65,7.59,0,*4F
1529417072.8,51722,20.88,74650.5,13.87,7.77,7.59,0,*4F
1529417073.97,51723,20.88,74650.0,13.87,7.41,7.33,0,*47
1529417075.2,51724,20.88,74652.8,13.87,7.23,7.11,0,*44
1529417076.38,51725,20.88,74654.3,13.87,7.51,7.45,0,*41
1529417077.59,51726,20.88,74654.0,13.81,7.59,7.51,0,*49
1529417078.83,51727,20.88,74656.8,13.85,7.47,7.29,0,*4C
1529417080.06,51728,20.88,74654.5,13.85,7.51,7.47,0,*4C
1529417081.32,51729,20.88,74650.0,13.85,7.61,7.61,0,*4A
1529417082.53,51730,20.88,74654.8,13.85,7.41,7.37,0,*43
1529417083.74,51731,20.88,74656.3,13.81,7.51,7.37,0,*47
1529417084.94,51732,20.88,74654.0,13.85,7.51,7.41,0,*41
1529417086.18,51733,20.88,74654.0,13.85,7.61,7.51,0,*42
1529417087.41,51734,20.88,74652.3,13.85,7.51,7.47,0,*41
1529417088.68,51735,20.88,74654.3,13.85,7.65,7.61,0,*43
1529417089.93,51736,20.88,74654.5,13.85,7.83,7.83,0,*44
1529417091.17,51737,20.88,74654.8,13.85,7.61,7.51,0,*46
1529417092.43,51738,20.88,74652.5,13.85,7.77,7.61,0,*4D
1529417093.7,51739,20.88,74654.0,13.85,7.77,7.77,0,*4B
1529417094.96,51740,20.88,74654.0,13.85,7.83,7.73,0,*4A
1529417096.19,51741,20.88,74650.8,13.81,7.69,7.59,0,*43
1529417097.44,51742,20.88,74654.5,13.85,7.65,7.65,0,*47
1529417098.68,51743,20.88,74656.3,13.85,7.47,7.41,0,*40
1529417099.94,51744,20.88,74652.8,13.85,7.61,7.61,0,*41
1529417101.15,51745,20.88,74654.0,13.85,7.51,7.51,0,*40
1529417102.39,51746,20.88,74654.8,13.85,7.29,7.27,0,*4D
1529417103.62,51747,20.88,74654.8,13.81,7.47,7.45,0,*44
1529417104.85,51748,20.88,74656.3,13.85,7.51,7.47,0,*4A
1529417106.06,51749,20.88,74652.3,13.85,7.05,6.97,0,*46
1529417107.29,51750,20.88,74652.3,13.81,7.01,6.91,0,*48
1529417108.51,51751,20.88,74656.5,13.81,6.75,6.69,0,*4C
1529417109.77,51752,20.88,74652.8,13.81,6.65,6.65,0,*42
1529417110.95,51753,20.88,74652.5,13.79,6.79,6.83,0,*41
1529417112.21,51754,20.88,74658.0,13.77,7.23,7.23,0,*4D
1529417113.46,51755,20.88,74654.3,13.77,7.47,7.47,0,*4C
1529417114.67,51756,20.88,74654.8,13.77,7.45,7.33,0,*4E
1529417115.9,51757,20.88,74654.0,13.79,7.23,7.27,0,*44
1529417117.09,51758,20.88,74652.3,13.79,7.51,7.51,0,*4F
1529417118.34,51759,20.88,74654.8,13.77,7.47,7.47,0,*40
1529417119.58,51760,20.88,74652.3,13.77,7.55,7.47,0,*49
1529417120.79,51761,20.88,74654.8,13.79,7.47,7.37,0,*42
1529417121.97,51762,20.88,74652.3,13.79,7.37,7.37,0,*46
1529417123.2,51763,20.88,74652.8,13.81,7.61,7.59,0,*4B
1529417124.41,51764,20.88,74652.5,13.77,7.55,7.55,0,*4E
1529417125.62,51765,20.88,74652.8,13.77,7.59,7.55,0,*43
1529417126.82,51766,20.88,74652.5,13.79,7.97,7.91,0,*44
1529417128.08,51767,20.88,74654.8,13.77,7.65,7.65,0,*4D
1529417129.29,51768,20.88,74650.0,13.79,7.47,7.45,0,*4E
1529417130.5,51769,20.88,74656.3,13.77,7.59,7.55,0,*4F
1529417131.73,51770,20.88,74654.3,13.77,7.65,7.59,0,*44
1529417132.98,51771,20.88,74652.0,13.77,7.69,7.65,0,*46
1529417134.17,51772,20.88,74656.0,13.79,7.59,7.59,0,*47
1529417135.38,51773,20.88,74654.0,13.79,7.59,7.61,0,*4D
1529417136.62,51774,20.88,74654.8,13.79,7.61,7.69,0,*49
1529417137.88,51775,20.88,74654.5,13.77,7.91,7.91,0,*4E
1529417139.11,51776,20.88,74652.5,13.79,7.83,7.83,0,*43
1529417140.34,51777,20.88,74652.5,13.79,7.95,7.95,0,*42
1529417141.58,51778,20.88,74654.5,13.79,7.95,7.95,0,*4D
1529417142.79,51779,20.88,74654.8,13.79,7.69,7.59,0,*4F
1529417144.0,51780,20.88,74652.3,13.85,7.55,7.55,0,*49
1529417145.24,51781,20.88,74650.3,13.77,7.79,7.87,0,*44
1529417146.48,51782,20.88,74652.3,13.79,7.73,7.61,0,*4B
1529417147.71,51783,20.88,74652.3,13.79,7.69,7.73,0,*42
1529417148.97,51784,20.88,74654.0,13.85,7.87,7.83,0,*49
1529417150.2,51785,20.88,74652.3,13.81,8.13,8.01,0,*4B
1529417151.41,51786,20.88,74652.5,13.81,7.33,7.51,0,*4F
1529417152.65,51787,20.88,74652.0,13.81,6.69,6.69,0,*4A
1529417153.88,51788,20.88,74652.8,13.79,6.57,6.53,0,*46
1529417155.09,51789,20.88,74652.8,13.79,6.83,6.65,0,*4B
1529417156.32,51790,20.88,74652.5,13.77,7.47,7.41,0,*43
1529417157.58,51791,20.88,74652.3,13.77,7.69,7.77,0,*4B
1529417158.84,51792,20.88,74654.0,13.77,7.69,7.65,0,*4B
1529417160.04,51793,20.88,74650.8,13.77,7.33,7.33,0,*46
1529417161.25,51794,20.88,74652.8,13.77,6.97,6.97,0,*41
1529417162.48,51795,20.88,74656.5,13.75,6.53,6.53,0,*42
1529417163.69,51796,20.88,74652.8,13.73,6.93,6.93,0,*47
1529417164.9,51797,20.88,74654.0,13.75,7.45,7.47,0,*42
1529417166.13,51798,20.88,74652.8,13.73,7.65,7.55,0,*4A
1529417167.34,51799,20.88,74652.3,13.73,7.97,7.97,0,*48
1529417168.53,51800,20.88,74654.3,13.75,8.01,7.97,0,*41
1529417169.73,51801,20.88,74654.3,13.75,7.97,7.91,0,*46
1529417170.99,51802,20.88,74654.0,13.77,7.91,7.91,0,*41
1529417172.17,51803,20.88,74656.3,13.75,8.01,8.01,0,*42
1529417173.38,51804,20.88,74654.3,13.77,8.01,7.97,0,*47
1529417174.59,51805,20.88,74652.5,13.77,7.55,7.55,0,*46
1529417175.8,51806,20.88,74654.5,13.77,7.59,7.59,0,*45
1529417177.04,51807,20.88,74654.3,13.77,7.79,7.87,0,*45
1529417178.25,51808,20.88,74652.3,13.77,8.01,8.09,0,*43
1529417179.51,51809,20.88,74652.5,13.77,7.77,7.77,0,*4A
1529417180.72,51810,20.88,74654.3,13.79,8.01,7.95,0,*4E
1529417181.98,51811,20.88,74654.3,13.77,7.91,7.91,0,*43
1529417183.16,51812,20.88,74654.5,13.79,8.05,8.01,0,*4A
1529417184.4,51813,20.88,74654.3,13.77,8.09,8.13,0,*4A
1529417185.59,51814,20.88,74654.3,13.79,8.15,8.15,0,*48
1529417186.79,51815,20.88,74652.8,13.81,8.05,8.01,0,*4A
1529417188.0,51816,20.88,74652.3,13.81,8.01,8.05,0,*49
1529417189.23,51817,20.88,74654.5,13.81,7.95,8.01,0,*4E
1529417190.5,51818,20.88,74652.5,13.85,7.95,7.95,0,*47
1529417191.71,51819,20.88,74658.0,13.85,8.09,8.09,0,*46
1529417192.92,51820,20.88,74654.0,13.81,8.23,8.23,0,*48
1529417194.17,51821,20.88,74654.0,13.85,8.29,8.41,0,*43
1529417195.37,51822,20.88,74652.5,13.85,8.05,7.97,0,*4A
1529417196.56,51823,20.88,74654.5,13.87,7.79,7.79,0,*4D
1529417197.8,51824,20.88,74654.0,13.85,8.27,8.41,0,*48
1529417199.0,51825,20.88,74654.8,13.85,8.05,8.09,0,*45
1529417200.24,51826,20.88,74652.3,13.85,7.55,7.65,0,*49
1529417201.45,51827,20.88,74650.5,13.87,7.79,7.77,0,*47
1529417202.66,51828,20.88,74654.5,13.85,6.83,6.83,0,*44
1529417203.86,51829,20.88,74652.3,13.85,6.83,6.93,0,*44
1529417205.1,51830,20.88,74652.3,13.85,7.55,7.65,0,*4E
1529417206.36,51831,20.88,74654.8,13.81,7.73,7.73,0,*48
1529417207.62,51832,20.88,74654.8,13.81,7.83,7.95,0,*4C
1529417208.83,51833,20.88,74652.5,13.85,8.09,8.19,0,*4F
1529417210.06,51834,20.88,74654.0,13.81,8.23,8.29,0,*47
1529417211.27,51835,20.88,74656.3,13.87,8.19,8.37,0,*46
1529417212.5,51836,20.88,74654.0,13.87,8.37,8.55,0,*4D
1529417213.73,51837,20.88,74652.5,13.87,7.91,7.91,0,*48
1529417214.94,51838,20.88,74654.8,13.87,7.91,8.09,0,*49
1529417216.14,51839,20.88,74654.8,13.87,8.09,8.13,0,*4D
1529417217.32,51840,20.88,74652.8,13.87,8.09,8.09,0,*48
1529417218.5,51841,20.88,74658.0,13.87,8.01,7.97,0,*49
1529417219.7,51842,20.88,74654.0,13.87,8.23,8.29,0,*40
1529417220.91,51843,20.88,74654.8,13.89,8.69,8.71,0,*4C
1529417222.09,51844,20.88,74652.3,13.89,8.79,8.79,0,*42
1529417223.27,51845,20.88,74654.8,13.89,8.69,8.79,0,*42
1529417224.48,51846,20.88,74652.8,13.93,8.65,8.75,0,*4A
1529417225.65,51847,20.88,74656.0,13.93,8.45,8.65,0,*48
1529417226.84,51848,20.88,74654.8,13.93,8.45,8.61,0,*43
1529417228.1,51849,20.88,74652.8,13.95,8.41,8.41,0,*42
1529417229.3,51850,20.88,74656.5,13.95,8.01,8.09,0,*42
1529417230.56,51851,20.88,74654.8,13.95,8.13,8.29,0,*42
1529417231.79,51852,20.88,74652.3,13.97,8.59,8.75,0,*44
1529417232.97,51853,20.88,74654.8,13.97,8.65,8.87,0,*47
1529417234.16,51854,20.88,74652.0,13.97,8.79,8.87,0,*4D
1529417235.36,51855,20.88,74654.0,13.97,8.45,8.47,0,*4F
1529417236.57,51856,20.88,74654.0,13.97,8.23,8.29,0,*44
1529417237.8,51857,20.88,74654.3,13.99,8.59,8.79,0,*43
1529417239.04,51858,20.88,74652.8,13.99,8.79,8.93,0,*4A
1529417240.25,51859,20.88,74652.3,14.01,8.83,9.01,0,*42
1529417241.46,51860,20.88,74654.3,14.01,8.89,9.03,0,*40
1529417242.66,51861,20.88,74652.5,14.03,8.65,8.83,0,*48
1529417243.89,51862,20.88,74652.8,14.03,8.87,8.93,0,*46
1529417245.12,51863,20.88,74658.0,14.05,8.59,8.75,0,*4A
1529417246.33,51864,20.88,74652.3,14.05,8.59,8.69,0,*40
1529417247.5,51865,20.88,74654.3,14.05,8.65,8.79,0,*4F
1529417248.73,51866,20.88,74658.3,14.09,8.89,8.93,0,*46
1529417249.96,51867,20.88,74654.3,14.11,9.11,9.21,0,*46
1529417251.21,51868,20.88,74650.8,14.11,9.01,9.11,0,*4B
1529417252.41,51869,20.88,74654.0,14.11,8.61,8.79,0,*42
1529417253.61,51870,20.88,74656.3,14.13,8.93,9.03,0,*49
1529417254.82,51871,20.88,74654.0,14.15,8.83,8.87,0,*42
1529417256.07,51872,20.88,74654.3,14.15,8.51,8.51,0,*45
1529417257.29,51873,20.88,74656.3,14.15,8.51,8.65,0,*43
1529417258.52,51874,20.88,74654.0,14.15,8.59,8.65,0,*4C
1529417259.73,51875,20.88,74654.3,14.17,8.87,9.01,0,*4F
1529417260.94,51876,20.88,74652.8,14.17,9.19,9.33,0,*4B
1529417262.17,51877,20.88,74652.0,14.17,9.01,9.11,0,*43
1529417263.42,51878,20.88,74652.5,14.19,9.01,9.15,0,*46
1529417264.64,51879,20.88,74654.3,14.19,9.15,9.33,0,*46
1529417265.82,51880,20.88,74654.5,14.23,9.21,9.47,0,*4D
1529417267.06,51881,20.88,74654.3,14.23,9.35,9.49,0,*47
1529417268.24,51882,20.88,74654.5,14.23,9.29,9.43,0,*43
1529417269.47,51883,20.88,74654.3,14.23,8.97,9.15,0,*45
1529417270.71,51884,20.88,74654.5,14.27,8.89,9.01,0,*4C
1529417271.92,51885,20.88,74654.5,14.27,8.87,9.01,0,*43
1529417273.13,51886,20.88,74652.0,14.27,8.89,9.07,0,*48
1529417274.34,51887,20.88,74654.0,14.27,8.09,8.29,0,*4C
1529417275.55,51888,20.88,74658.3,14.27,7.95,7.97,0,*43
1529417276.74,51889,20.88,74654.8,14.31,7.79,7.79,0,*47
1529417277.95,51890,20.88,74654.0,14.31,8.01,8.13,0,*4C
1529417279.18,51891,20.88,74652.5,14.27,8.75,9.01,0,*4B
1529417280.39,51892,20.88,74652.3,14.27,8.89,9.07,0,*4D
1529417281.62,51893,20.88,74658.0,14.27,8.97,9.11,0,*44
1529417282.85,51894,20.88,74654.0,14.33,9.15,9.29,0,*46
1529417284.06,51895,20.88,74654.0,14.33,9.07,9.29,0,*44
1529417285.29,51896,20.88,74652.5,14.33,9.15,9.29,0,*44
1529417286.51,51897,20.88,74654.3,14.35,8.97,9.15,0,*47
1529417287.73,51898,20.88,74652.5,14.35,9.03,9.19,0,*48
1529417288.96,51899,20.88,74654.3,14.37,8.87,8.97,0,*41
1529417290.19,51900,20.88,74654.8,14.35,8.51,8.59,0,*4B
1529417291.46,51901,20.88,74654.5,14.37,8.55,8.55,0,*40
1529417292.7,51902,20.88,74656.0,14.37,8.45,8.51,0,*46
1529417293.91,51903,20.88,74652.8,14.39,8.27,8.37,0,*4D
1529417295.17,51904,20.88,74654.5,14.37,8.41,8.51,0,*44
1529417296.41,51905,20.88,74654.8,14.37,8.75,8.83,0,*4D
1529417297.64,51906,20.88,74652.8,14.37,8.55,8.65,0,*44
1529417298.88,51907,20.88,74656.0,14.39,9.01,9.15,0,*4D
1529417300.11,51908,20.88,74654.5,14.39,9.01,9.11,0,*46
1529417301.33,51909,20.88,74652.0,14.39,8.93,9.15,0,*49
1529417302.54,51910,20.88,74654.3,14.41,9.03,9.21,0,*41
1529417303.75,51911,20.88,74658.0,14.41,9.03,9.25,0,*44
1529417304.99,51912,20.88,74654.3,14.41,8.87,8.93,0,*46
1529417306.22,51913,20.88,74654.5,14.45,8.75,8.83,0,*4F
1529417307.41,51914,20.88,74656.5,14.43,8.15,8.27,0,*46
1529417308.64,51915,20.88,74652.0,14.45,8.75,8.87,0,*4D
1529417309.87,51916,20.88,74652.5,14.45,8.87,8.93,0,*46
1529417311.13,51917,20.88,74654.5,14.45,8.97,9.19,0,*45
1529417312.31,51918,20.88,74654.8,14.47,9.07,9.29,0,*43
1529417313.53,51919,20.88,74654.8,14.49,9.15,9.33,0,*44
1529417314.76,51920,20.88,74654.0,14.47,8.93,9.19,0,*47
1529417315.95,51921,20.88,74654.5,14.47,8.87,8.83,0,*41
1529417317.15,51922,20.88,74658.0,14.49,8.65,8.69,0,*44
1529417318.36,51923,20.88,74654.0,14.49,9.03,9.03,0,*49
1529417319.55,51924,20.88,74652.3,14.49,8.65,8.65,0,*4E
1529417320.77,51925,20.88,74656.0,14.53,8.79,8.71,0,*4C
1529417321.95,51926,20.88,74654.3,14.53,8.61,8.69,0,*4F